Location: Gro� Glienicke
(52.4675°N, 13.1079°E)
Time: 18:06:49
(UTC+00:00)

Cosmos 371 Rocket - Pass Details

Date: 06 July 2020
Orbit: 684 x 698 km, 74.0° (Epoch: 13 August)

Event Time Altitude Azimuth Distance (km) Brightness Sun altitude
Rises 22:41:23 0° 332° (NNW) 3,087 8.0 -14.7°
Reaches altitude 10° 22:43:44 10° 329° (NNW) 2,163 6.9 -14.7°
Maximum altitude 22:48:32 62° 250° (WSW) 785 3.5 -14.8°
Enters shadow 22:51:20 24° 177° (S) 1,410 4.3 -14.8°
